Location: Unspecified
(0.0000°N, 0.0000°E)
Time: 06:52:17
(UTC+00:00)

Vanguard 2 Rocket - Pass Details

Date: 13 October 2022
Orbit: 555 x 3321 km, 32.9° (Epoch: 06 December)

Event Time Altitude Azimuth Distance (km) Brightness Sun altitude
Rises 00:54:33 0° 322° (NW) 5,856 - -71.3°
Reaches altitude 10° 01:01:27 10° 343° (NNW) 4,149 - -69.8°
Maximum altitude 01:06:32 14° 12° (NNE) 3,239 - -68.6°
Drops below altitude 10° 01:10:33 10° 43° (NE) 3,117 - -67.6°
Sets 01:14:23 0° 69° (ENE) 3,637 - -66.7°
